• In Germany
  • List of Countries
  • For 7 days
  • Water Temperature
  • Satellite Maps
  • Weather Map
  • Weather Widgets
  • user-avatar
    Login

    Hourly Weather Dhaka

    Today, 23 May, Wednesday

    Time Temperature Precipitation Wind Pressure Humidity
    00:00 +29°C° 0 mm 3 mps 753 mmHg 86%
    01:00 +29°C° 2.6 mm 3 mps 753 mmHg 87%
    02:00 +29°C° 2.6 mm 3 mps 753 mmHg 87%
    03:00 +29°C° 2.6 mm 4 mps 753 mmHg 88%
    04:00 +29°C° 2.3 mm 3 mps 753 mmHg 87%
    05:00 +29°C° 2.3 mm 3 mps 753 mmHg 86%
    06:00 +29°C° 0 mm 3 mps 754 mmHg 86%
    07:00 +30°C° 1 mm 3 mps 754 mmHg 80%
    08:00 +31°C° 1 mm 3 mps 754 mmHg 74%
    09:00 +33°C° 1 mm 4 mps 754 mmHg 68%
    10:00 +34°C° 0.6 mm 4 mps 754 mmHg 63%
    11:00 +35°C° 0.6 mm 4 mps 754 mmHg 59%
    12:00 +36°C° 0.6 mm 4 mps 754 mmHg 54%
    13:00 +36°C° 0.3 mm 4 mps 753 mmHg 55%
    14:00 +36°C° 0.3 mm 4 mps 752 mmHg 56%
    15:00 +36°C° 0.3 mm 5 mps 752 mmHg 57%
    16:00 +35°C° 0.4 mm 4 mps 751 mmHg 62%
    17:00 +34°C° 0.4 mm 4 mps 751 mmHg 67%
    18:00 +33°C° 0.4 mm 4 mps 751 mmHg 72%
    19:00 +31°C° 0 mm 3 mps 751 mmHg 74%
    20:00 +31°C° 0 mm 3 mps 752 mmHg 77%
    21:00 +30°C° 0 mm 3 mps 752 mmHg 79%
    22:00 +30°C° 0 mm 3 mps 752 mmHg 81%
    23:00 +30°C° 0 mm 3 mps 752 mmHg 83%

    Tomorrow, 24 May, Thursday

    Time Temperature Precipitation Wind Pressure Humidity
    00:00 +29°C° 0 mm 3 mps 752 mmHg 85%
    01:00 +29°C° 0.4 mm 3 mps 752 mmHg 87%
    02:00 +29°C° 0.4 mm 3 mps 752 mmHg 88%
    03:00 +29°C° 0.4 mm 3 mps 752 mmHg 90%
    04:00 +29°C° 3.4 mm 3 mps 752 mmHg 89%
    05:00 +29°C° 3.4 mm 4 mps 752 mmHg 89%
    06:00 +29°C° 3.4 mm 4 mps 752 mmHg 88%
    07:00 +30°C° 2.9 mm 4 mps 753 mmHg 84%
    08:00 +32°C° 2.9 mm 4 mps 753 mmHg 80%
    09:00 +33°C° 2.9 mm 4 mps 753 mmHg 76%
    10:00 +34°C° 2.1 mm 4 mps 753 mmHg 73%
    11:00 +34°C° 2.1 mm 4 mps 753 mmHg 70%
    12:00 +35°C° 2.1 mm 3 mps 753 mmHg 66%
    13:00 +35°C° 3.6 mm 4 mps 752 mmHg 69%
    14:00 +34°C° 3.6 mm 4 mps 751 mmHg 72%
    15:00 +33°C° 3.6 mm 4 mps 751 mmHg 74%
    16:00 +33°C° 0.3 mm 4 mps 751 mmHg 76%
    17:00 +33°C° 0.3 mm 4 mps 750 mmHg 77%
    18:00 +32°C° 0.3 mm 4 mps 750 mmHg 78%
    19:00 +32°C° 0.3 mm 5 mps 750 mmHg 79%
    20:00 +32°C° 0.3 mm 5 mps 751 mmHg 80%
    21:00 +30°C° 0.3 mm 6 mps 751 mmHg 80%
    22:00 +30°C° 0.1 mm 6 mps 751 mmHg 82%
    23:00 +30°C° 0.1 mm 5 mps 751 mmHg 84%

    Day after tomorrow, 25 May, Friday

    Time Temperature Precipitation Wind Pressure Humidity
    00:00 +29°C° 0.1 mm 5 mps 751 mmHg 86%
    01:00 +29°C° 0.1 mm 4 mps 751 mmHg 87%
    02:00 +29°C° 0.1 mm 3 mps 751 mmHg 88%
    03:00 +29°C° 0.1 mm 3 mps 751 mmHg 90%
    04:00 +29°C° 0 mm 3 mps 751 mmHg 90%
    05:00 +29°C° 0 mm 3 mps 751 mmHg 90%
    06:00 +29°C° 0 mm 3 mps 752 mmHg 89%
    07:00 +30°C° 0.1 mm 4 mps 752 mmHg 83%
    08:00 +33°C° 0.1 mm 4 mps 753 mmHg 77%
    09:00 +34°C° 0.1 mm 5 mps 753 mmHg 70%
    10:00 +35°C° 0 mm 5 mps 753 mmHg 67%
    11:00 +36°C° 0 mm 5 mps 752 mmHg 63%
    12:00 +37°C° 0 mm 5 mps 752 mmHg 60%
    13:00 +38°C° 0 mm 6 mps 751 mmHg 59%
    14:00 +39°C° 0 mm 6 mps 750 mmHg 57%
    15:00 +39°C° 0 mm 6 mps 750 mmHg 56%
    16:00 +38°C° 1.3 mm 6 mps 750 mmHg 60%
    17:00 +36°C° 1.3 mm 6 mps 750 mmHg 65%
    18:00 +34°C° 1.3 mm 5 mps 749 mmHg 69%
    19:00 +34°C° 0.1 mm 6 mps 750 mmHg 71%
    20:00 +33°C° 0.1 mm 6 mps 750 mmHg 74%
    21:00 +32°C° 0.1 mm 7 mps 751 mmHg 76%
    22:00 +32°C° 0 mm 6 mps 751 mmHg 78%
    23:00 +30°C° 0 mm 6 mps 751 mmHg 80%

    26 May, Saturday

    Time Temperature Precipitation Wind Pressure Humidity
    00:00 +30°C° 0 mm 6 mps 751 mmHg 83%
    01:00 +30°C° 0 mm 5 mps 751 mmHg 84%
    02:00 +30°C° 0 mm 4 mps 751 mmHg 85%
    03:00 +29°C° 0 mm 3 mps 751 mmHg 86%
    04:00 +29°C° 0 mm 3 mps 751 mmHg 86%
    05:00 +30°C° 0 mm 3 mps 752 mmHg 86%
    06:00 +30°C° 0 mm 3 mps 752 mmHg 86%
    07:00 +30°C° 1.2 mm 4 mps 752 mmHg 85%
    08:00 +30°C° 1.2 mm 4 mps 753 mmHg 84%
    09:00 +30°C° 1.2 mm 4 mps 754 mmHg 82%
    10:00 +32°C° 3.7 mm 5 mps 753 mmHg 81%
    11:00 +32°C° 3.7 mm 5 mps 753 mmHg 80%
    12:00 +32°C° 3.7 mm 5 mps 753 mmHg 79%
    13:00 +32°C° 0 mm 5 mps 752 mmHg 78%
    14:00 +33°C° 0 mm 5 mps 751 mmHg 77%
    15:00 +33°C° 0 mm 5 mps 751 mmHg 75%
    16:00 +33°C° 0 mm 5 mps 751 mmHg 77%
    17:00 +33°C° 0 mm 4 mps 750 mmHg 78%
    18:00 +32°C° 0 mm 4 mps 750 mmHg 80%
    19:00 +32°C° 0 mm 4 mps 751 mmHg 81%
    20:00 +32°C° 0 mm 4 mps 751 mmHg 82%
    21:00 +30°C° 0 mm 5 mps 752 mmHg 83%
    22:00 +30°C° 0 mm 4 mps 752 mmHg 85%
    23:00 +30°C° 0 mm 4 mps 752 mmHg 86%

    27 May, Sunday

    Time Temperature Precipitation Wind Pressure Humidity
    00:00 +29°C° 0 mm 4 mps 752 mmHg 88%
    01:00 +29°C° 0 mm 3 mps 752 mmHg 89%
    02:00 +29°C° 0 mm 2 mps 752 mmHg 91%
    03:00 +29°C° 0 mm 2 mps 751 mmHg 92%
    04:00 +29°C° 0 mm 2 mps 752 mmHg 92%
    05:00 +29°C° 0 mm 3 mps 752 mmHg 91%
    06:00 +29°C° 0 mm 3 mps 752 mmHg 91%
    07:00 +32°C° 0 mm 4 mps 753 mmHg 84%
    08:00 +33°C° 0 mm 5 mps 753 mmHg 77%
    09:00 +34°C° 0 mm 5 mps 754 mmHg 70%
    10:00 +35°C° 0.1 mm 5 mps 753 mmHg 66%
    11:00 +36°C° 0.1 mm 5 mps 753 mmHg 63%
    12:00 +37°C° 0.1 mm 5 mps 752 mmHg 60%
    13:00 +37°C° 0.1 mm 5 mps 752 mmHg 59%
    14:00 +37°C° 0.1 mm 5 mps 751 mmHg 58%
    15:00 +37°C° 0.1 mm 5 mps 750 mmHg 57%
    16:00 +37°C° 0 mm 5 mps 750 mmHg 60%
    17:00 +36°C° 0 mm 5 mps 750 mmHg 63%
    18:00 +35°C° 0 mm 5 mps 750 mmHg 65%
    19:00 +34°C° 0 mm 5 mps 751 mmHg 69%
    20:00 +33°C° 0 mm 5 mps 751 mmHg 72%
    21:00 +32°C° 0 mm 6 mps 752 mmHg 76%
    22:00 +32°C° 0 mm 5 mps 752 mmHg 78%
    23:00 +32°C° 0 mm 4 mps 752 mmHg 81%

    28 May, Monday

    Time Temperature Precipitation Wind Pressure Humidity
    00:00 +30°C° 0 mm 3 mps 752 mmHg 84%
    01:00 +30°C° 0.1 mm 4 mps 752 mmHg 85%
    02:00 +30°C° 0.1 mm 4 mps 752 mmHg 85%
    03:00 +30°C° 0.1 mm 4 mps 751 mmHg 86%
    04:00 +30°C° 0.1 mm 3 mps 752 mmHg 86%
    05:00 +30°C° 0.1 mm 3 mps 752 mmHg 87%
    06:00 +29°C° 0.1 mm 2 mps 752 mmHg 88%
    07:00 +31°C° 0 mm 3 mps 752 mmHg 81%
    08:00 +33°C° 0 mm 4 mps 752 mmHg 75%
    09:00 +34°C° 0 mm 5 mps 753 mmHg 69%
    10:00 +35°C° 0.1 mm 5 mps 752 mmHg 65%
    11:00 +36°C° 0.1 mm 5 mps 752 mmHg 62%
    12:00 +37°C° 0.1 mm 5 mps 751 mmHg 58%
    13:00 +36°C° 0.1 mm 5 mps 750 mmHg 58%
    14:00 +36°C° 0.1 mm 5 mps 750 mmHg 58%
    15:00 +36°C° 0.1 mm 5 mps 749 mmHg 58%
    16:00 +35°C° 0 mm 4 mps 749 mmHg 62%
    17:00 +34°C° 0 mm 4 mps 749 mmHg 66%
    18:00 +33°C° 0 mm 3 mps 748 mmHg 69%
    19:00 +33°C° 0 mm 3 mps 749 mmHg 70%
    20:00 +31°C° 0 mm 3 mps 749 mmHg 71%
    21:00 +31°C° 0 mm 3 mps 749 mmHg 71%
    22:00 +31°C° 0 mm 3 mps 749 mmHg 72%
    23:00 +30°C° 0 mm 3 mps 749 mmHg 72%
    Show more